Regional Weather Roundup
Issued by NWS

Home | Current Version | Previous Version | Text Only | Print | Product List | Glossary Off
Versions: 1 2 3 4 5 6 7 8 9 10 11 12 13 14 15 16 17 18 19 20 21 22 23 24 25 26 27 28 29 30 31 32 33 34 35 36 37 38 39 40 41 42 43 44 45 46 47 48 49 50

000
ASUS43 KBIS 311402
RWRND

NORTH DAKOTA REGIONAL WEATHER ROUNDUP
NATIONAL WEATHER SERVICE BISMARCK ND
900 AM CDT FRI JUL 31 2015

NOTE: "FAIR" INDICATES FEW OR NO CLOUDS BELOW 12,000 FEET WITH NO
SIGNIFICANT WEATHER AND/OR OBSTRUCTIONS TO VISIBILITY.


NDZ001>003-009>011-017-311500-
NORTHWEST NORTH DAKOTA

CITY           SKY/WX    TMP DP  RH WIND       PRES   REMARKS
WILLISTON      SUNNY     65  52  62 SW7       30.16S
MINOT          SUNNY     67  52  58 W7        30.14S
MINOT AFB      SUNNY     70  55  59 W5        30.13S
$$

NDZ018>021-031>035-040>046-311500-
SOUTHWEST NORTH DAKOTA

CITY           SKY/WX    TMP DP  RH WIND       PRES   REMARKS
BISMARCK       MOSUNNY   64  53  67 SW5       30.17F
DICKINSON      SUNNY     71  52  50 W10       30.18S
GARRISON         N/A     66  57  72 CALM      30.15S
HETTINGER ARPT SUNNY     65  52  62 CALM      30.23S
$$

NDZ004>008-012>016-024-026-027-054-311500-
NORTHEAST NORTH DAKOTA

CITY           SKY/WX    TMP DP  RH WIND       PRES   REMARKS
GRAND FORKS    MOSUNNY   69  55  60 W13       30.06S
GRND FRKS AFB  SUNNY     69  55  60 NW12      30.07S
DEVILS LAKE    PTSUNNY   66  50  55 NW15      30.11S
$$

NDZ022-023-025-028>030-036>039-047>053-311500-
SOUTHEAST NORTH DAKOTA

CITY           SKY/WX    TMP DP  RH WIND       PRES   REMARKS
FARGO          SUNNY     68  55  63 W15       30.10R
JAMESTOWN      SUNNY     67  54  63 W8        30.14S
$$



USA.gov is the U.S. government's official web portal to all federal, state and local government web resources and services.